Theta_e
328 327 326 325 321 318 314 309 308 308 305 303 301 300 298 297 297 297 297 308 311 315 318 320 322 322 321 322 322 320 319 317 315 314 313 315 315 316 316 318 319 321 323
328 326 322 321 318 317 314 312 311 310 308 305 301 299 295 293 292 291 291 295 305 309 313 315 316 318 318 318 317 316 315 314 312 311 311 311 312 313 313 314 315 316 317
325 322 319 317 315 315 313 310 308 308 304 300 296 293 291 290 289 289 289 288 289 301 305 308 309 312 315 316 316 314 313 311 310 309 309 309 309 310 310 311 312 313 314
321 319 316 314 313 311 309 305 304 301 296 294 291 289 288 288 287 287 287 287 286 286 295 302 306 309 311 311 310 309 309 308 307 307 306 306 307 308 308 309 309 310 311
316 315 313 311 308 305 303 301 298 298 294 291 289 287 285 285 285 286 285 285 285 284 285 296 300 300 302 304 306 307 307 306 305 304 304 304 305 305 306 307 307 308 309
309 309 307 304 301 298 297 297 295 293 293 289 287 285 284 283 283 282 282 284 284 283 284 285 285 288 296 300 302 304 304 304 303 302 302 303 303 304 304 305 305 306 307
304 304 302 299 295 294 293 296 294 293 289 288 287 285 284 282 281 281 281 281 282 282 283 283 283 283 284 294 298 300 302 303 302 301 301 301 302 302 302 304 304 304 305
299 299 298 292 290 290 291 292 291 285 284 284 288 286 282 284 283 282 280 281 279 280 281 282 282 281 280 282 289 296 298 299 300 300 299 300 300 301 301 302 302 303 303
294 293 291 289 287 289 291 287 287 287 282 281 283 289 285 285 282 283 279 277 278 278 278 280 280 280 280 280 284 288 293 295 296 297 297 298 298 299 300 300 301 301 302
289 289 288 286 285 285 285 285 284 283 283 280 280 280 279 282 278 276 277 277 277 278 277 279 278 279 279 279 283 287 290 291 292 293 294 295 296 297 298 299 299 300 300
286 286 285 284 283 283 282 282 281 282 281 280 280 279 277 276 276 275 274 275 277 277 277 278 277 277 278 278 279 283 287 289 290 291 292 293 294 295 296 297 298 298 299
283 283 283 282 282 282 281 281 280 281 280 279 279 279 278 276 275 275 273 274 274 276 277 277 277 277 277 277 280 284 285 287 288 290 290 291 292 293 294 295 296 297 297
281 281 281 281 281 280 280 280 280 280 280 280 279 278 278 277 277 277 275 274 274 275 277 276 277 277 278 277 278 282 282 284 287 288 289 289 290 291 292 293 294 294 294
282 281 281 280 280 280 280 279 280 279 280 279 278 278 278 278 278 278 276 275 273 273 275 275 275 277 277 277 279 282 277 282 285 286 287 288 289 289 290 291 292 292 292
282 280 280 279 279 279 279 279 279 278 278 278 278 278 278 277 278 277 277 276 274 271 271 273 273 277 276 276 278 276 276 280 283 284 285 286 287 288 289 289 290 290 291
281 279 279 279 278 279 279 279 278 278 278 277 278 278 277 277 277 277 277 276 275 273 271 273 274 275 275 277 277 277 276 280 280 282 284 285 286 287 287 287 288 288 289
280 280 279 279 279 279 279 278 278 278 278 277 277 277 277 276 275 275 275 274 274 274 271 273 274 273 273 274 275 275 276 276 276 280 282 284 285 285 285 285 285 286 286
280 280 279 279 279 279 279 278 278 278 277 276 277 276 275 277 274 274 274 273 273 273 272 270 272 272 272 273 274 273 276 277 276 279 282 283 283 282 283 283 283 284 284
280 279 279 279 279 279 279 279 279 278 278 278 277 276 275 275 274 273 273 272 273 274 272 271 270 272 273 273 273 274 275 275 277 279 280 280 280 281 281 281 281 281 281
279 279 279 280 279 279 279 279 279 278 278 278 277 276 275 275 275 273 273 273 273 272 272 271 271 271 271 273 273 272 273 275 274 276 277 277 278 278 278 279 279 279 279
280 280 279 279 279 279 279 279 278 278 277 277 276 277 276 276 279 277 274 273 272 271 271 271 270 270 271 271 272 273 272 273 274 274 272 273 273 272 273 275 275 277 280
279 279 278 278 278 279 283 283 279 278 277 276 276 276 276 277 279 281 282 280 276 271 263 265 271 271 272 272 273 272 272 271 269 273 271 269 271 270 272 272 277 278 279
279 278 278 278 278 278 284 285 283 278 277 276 276 276 276 276 275 275 279 282 282 283 281 273 272 273 272 273 273 273 273 271 269 271 269 267 270 269 271 273 276 278 278
279 278 278 278 278 278 284 285 284 278 277 276 276 276 276 275 275 274 274 273 274 274 275 275 275 274 274 275 275 275 271 266 269 269 270 264 269 268 270 270 275 276 277
279 279 279 278 278 278 284 285 284 280 278 276 276 276 275 275 277 280 276 272 272 273 277 280 281 281 282 282 278 270 260 257 263 266 268 266 267 267 268 268 271 274 275
279 279 279 279 279 279 283 285 285 280 278 277 276 276 278 277 279 280 277 272 271 273 273 271 273 276 276 272 274 272 268 259 262 260 268 265 266 266 263 267 269 269 269
Wind_Speed
5 5 5 5 5 5 6 5 5 7 7 9 8 10 9 9 9 5 6 22 23 24 24 24 24 24 23 25 25 26 26 25 25 26 27 27 26 26 27 27 26 27 26
7 6 4 6 5 6 6 5 4 7 6 7 10 10 10 8 9 9 6 8 23 23 23 24 24 24 24 23 23 23 24 24 25 27 26 26 26 26 26 26 26 26 27
8 8 6 5 5 5 9 6 5 7 8 8 10 8 8 8 7 9 7 7 7 20 22 23 22 23 24 24 24 25 25 25 25 26 26 26 26 27 27 27 27 27 27
9 8 6 5 6 6 6 6 6 7 7 7 6 6 6 6 8 9 8 7 6 6 13 22 23 24 25 25 24 23 23 24 25 25 26 27 27 27 27 28 28 27 27
7 7 6 6 7 6 5 7 4 7 9 7 8 6 5 6 6 6 8 8 8 6 6 18 23 24 24 23 24 24 25 25 25 26 27 27 27 28 28 28 28 28 27
7 7 6 6 6 6 6 6 9 5 7 8 9 8 5 5 5 6 6 5 6 8 8 9 8 11 23 24 24 24 24 25 25 26 26 26 28 28 28 28 28 28 28
7 8 6 7 5 7 7 9 9 13 5 4 5 4 4 5 6 5 4 4 7 7 8 7 5 5 7 22 23 24 24 24 26 26 26 27 27 28 29 29 29 29 30
5 6 9 6 7 7 8 8 9 5 3 1 4 3 3 1 2 4 4 5 6 4 6 6 6 7 6 5 14 22 23 24 24 25 26 26 27 28 28 29 29 30 30
5 6 7 7 6 6 8 6 7 8 5 3 3 4 3 3 2 2 4 4 5 4 3 5 6 6 6 5 10 13 21 22 23 23 24 25 26 27 28 28 29 30 30
5 6 7 7 7 5 7 5 5 4 6 6 2 4 5 4 4 2 1 1 3 4 4 4 4 5 5 4 11 16 19 21 21 21 22 24 25 27 28 29 30 30 31
4 6 6 7 7 5 6 8 7 7 4 5 4 3 3 4 4 4 2 3 3 2 2 3 3 4 4 4 5 9 18 19 19 20 22 23 24 25 27 28 28 30 30
3 5 6 6 6 7 8 7 6 8 6 6 4 4 4 4 3 4 3 0 2 3 1 2 3 2 3 3 7 13 16 18 19 20 21 22 24 25 26 27 29 30 31
3 6 5 6 5 6 7 8 8 8 6 7 6 4 3 4 4 4 4 2 2 2 2 0 1 2 3 2 4 13 14 18 18 20 21 23 24 25 26 28 29 30 31
9 8 7 6 7 7 7 7 7 6 7 7 8 5 5 4 3 3 4 4 1 2 2 4 1 2 2 2 7 12 6 16 18 19 20 22 23 24 26 28 30 30 31
8 8 8 8 7 7 8 8 7 7 6 5 6 6 6 4 4 4 3 3 4 3 3 3 2 2 3 3 6 4 7 13 18 18 20 21 22 24 27 28 29 30 31
9 9 8 8 8 7 8 8 7 6 8 4 5 7 5 4 4 3 3 3 2 3 3 4 3 3 2 4 6 6 7 15 15 18 20 21 23 25 26 27 29 32 32
11 11 11 10 10 10 8 8 7 8 9 7 5 7 6 6 4 4 3 2 3 3 3 3 3 2 3 4 4 4 6 6 6 18 20 23 24 24 26 28 29 32 32
11 11 10 9 8 7 7 9 10 8 9 9 8 7 7 5 5 5 3 4 4 4 3 4 2 2 5 3 4 6 5 5 6 15 21 24 23 23 26 29 29 29 30
11 9 10 10 10 9 8 6 7 8 7 7 8 8 8 7 6 4 4 4 3 4 3 3 3 2 3 2 4 5 5 6 6 17 18 22 20 25 27 27 27 29 28
12 10 9 8 8 8 7 7 7 6 5 5 6 6 7 8 7 7 6 6 5 4 3 3 3 4 3 3 3 5 10 6 10 9 13 15 22 24 24 24 26 27 27
11 11 10 8 8 8 6 8 7 7 7 5 5 5 6 7 11 9 5 6 6 4 3 3 4 3 3 2 4 2 6 9 8 8 6 10 11 11 11 17 20 26 31
13 12 11 11 10 7 15 16 10 7 6 7 7 6 5 7 10 13 15 14 10 5 4 3 4 6 7 4 3 3 5 6 8 2 10 17 9 9 10 9 25 31 30
13 13 12 12 11 8 17 17 15 6 7 7 7 6 6 6 7 6 12 16 13 16 14 6 8 8 7 4 4 5 3 5 8 8 8 15 9 10 9 11 26 28 27
13 12 11 11 10 8 17 17 16 6 7 7 7 8 8 7 8 7 6 6 6 6 8 6 7 7 6 7 6 2 2 5 8 5 4 10 7 10 12 10 24 23 25
11 10 9 10 9 7 19 18 14 8 8 9 7 8 8 7 11 15 8 8 7 9 11 17 18 19 20 11 2 2 3 3 8 5 3 7 6 12 11 11 7 19 29
9 8 8 9 10 9 18 18 16 6 8 7 7 7 14 11 14 16 10 6 9 9 6 5 6 10 5 2 3 1 2 3 4 5 1 6 8 7 8 3 7 10 10
Wind_Direction
152 140 137 127 118 117 104 98 97 93 82 84 76 79 70 61 56 50 34 51 53 56 55 52 51 48 44 49 49 45 40 36 33 26 22 18 14 10 7 3 359 357 355
152 138 131 122 120 116 110 105 101 99 92 87 80 74 71 63 60 55 47 34 56 55 56 55 51 49 48 47 44 42 39 30 26 22 18 16 12 9 7 4 357 354 350
142 138 131 123 117 111 110 97 82 89 86 78 71 68 71 63 65 59 54 46 35 47 54 55 53 51 50 45 40 36 33 29 25 20 17 14 11 8 4 2 358 353 350
132 125 128 122 121 111 114 107 100 92 82 84 84 58 56 61 62 56 52 46 40 31 38 52 53 53 51 46 41 36 32 29 25 19 16 12 7 6 2 359 355 350 346
117 124 127 124 124 112 111 117 87 110 106 95 89 70 45 54 48 56 56 51 49 44 40 48 50 52 47 43 39 35 30 26 24 19 13 8 6 2 360 356 351 347 344
104 110 107 121 107 112 114 109 112 76 110 111 94 74 55 46 49 48 46 54 50 46 51 47 34 31 44 40 37 32 26 25 21 16 12 8 3 1 356 353 349 345 341
130 131 129 115 117 130 136 128 117 117 94 116 103 76 52 53 52 44 40 44 46 38 54 53 51 35 30 37 31 29 25 22 18 13 10 6 0 357 354 350 347 344 339
127 128 128 127 126 126 133 139 136 120 100 357 123 117 131 355 44 44 39 53 52 40 52 59 60 49 38 34 31 27 23 19 14 11 7 3 358 354 351 347 344 340 336
109 116 121 134 136 139 150 141 139 129 135 40 55 139 123 187 133 7 40 48 57 58 53 66 55 47 39 35 29 22 19 15 12 7 3 359 354 350 347 344 340 336 332
121 130 130 135 135 135 138 141 148 139 126 140 102 35 54 127 152 134 314 16 71 64 54 63 66 48 39 34 31 17 15 11 7 2 358 355 349 346 343 340 336 333 331
122 134 138 138 139 138 135 138 136 135 118 135 139 151 83 63 72 123 172 329 10 40 60 89 94 65 44 31 12 7 10 2 357 357 354 350 346 343 340 336 332 330 328
132 139 137 138 138 138 146 142 130 127 127 111 115 122 154 150 152 122 103 206 254 288 319 105 108 74 48 43 17 11 360 353 354 352 349 344 343 341 336 332 330 327 324
162 175 152 153 147 144 136 130 121 119 123 123 131 125 123 106 120 106 104 141 244 306 323 174 161 96 35 7 6 3 348 349 347 347 343 343 340 335 332 329 326 323 320
170 166 160 150 147 140 127 119 113 111 120 119 125 122 115 103 104 121 135 149 160 315 319 266 218 224 347 336 349 347 331 344 339 339 338 337 333 331 328 325 322 319 317
156 159 155 149 147 137 135 130 130 128 122 122 123 120 112 103 98 101 124 144 149 184 269 278 277 221 292 1 325 334 331 327 331 332 332 329 327 326 325 323 321 318 314
152 152 152 154 151 146 144 134 126 129 125 127 132 127 112 118 118 126 135 135 130 159 217 208 253 252 298 313 307 327 309 316 319 325 327 324 323 325 324 322 323 319 319
160 163 167 163 161 158 152 135 136 142 137 138 137 137 130 134 137 143 140 139 169 170 186 289 237 248 273 259 300 283 286 286 302 318 322 321 323 324 325 326 324 321 317
169 167 162 160 157 157 151 148 150 156 151 155 156 141 146 145 158 164 167 189 193 202 182 243 272 258 236 254 278 288 295 305 306 311 320 321 323 324 328 326 323 322 320
167 158 159 164 163 161 158 153 154 160 163 164 160 157 160 159 171 173 184 194 202 207 198 215 271 253 273 273 298 285 304 313 309 316 316 316 324 324 325 325 323 323 323
162 163 168 162 160 155 157 158 154 152 154 162 161 163 167 180 182 182 191 197 204 198 200 221 249 267 250 271 282 313 326 331 325 318 319 316 321 318 322 324 322 321 317
164 164 157 151 151 158 163 161 163 163 162 166 171 179 190 197 203 194 177 201 200 190 203 223 254 259 266 268 274 287 302 315 320 303 331 311 316 314 315 319 315 315 320
160 158 163 162 164 174 179 182 166 168 164 178 191 199 201 210 220 217 225 222 203 177 200 191 242 253 268 248 241 272 300 311 316 109 341 304 312 304 308 304 312 318 317
162 168 166 164 174 170 184 188 185 166 183 195 193 192 209 210 209 216 242 243 245 240 225 201 235 238 257 219 250 276 271 289 284 309 319 289 315 295 304 303 310 314 316
169 168 169 171 169 180 187 189 191 173 199 201 198 203 212 205 209 208 220 230 239 242 252 260 255 261 242 251 230 237 281 285 292 296 276 279 310 294 307 298 304 309 316
164 165 163 158 171 180 192 188 196 188 204 215 203 212 212 218 224 235 219 223 238 242 247 254 255 253 255 269 272 65 337 40 303 308 293 273 296 310 301 294 288 313 317
153 149 158 174 182 194 195 199 210 186 205 212 214 217 216 226 235 240 240 217 247 248 227 236 255 269 264 222 271 304 224 221 254 314 271 319 309 334 311 292 316 305 307